Wind_Speed
11 11 11 11 12 12 13 13 14 15 16 16 16 16 16 16 16 17 18 18 19 19 20 20 21 22 23 23 23 23 23 24 25 25 26 27 27 27
12 13 13 13 13 13 14 15 15 16 17 17 18 18 19 19 19 20 20 20 20 21 21 22 22 23 23 23 24 25 25 25 26 26 27 28 29 29
14 14 14 14 14 15 15 16 16 16 17 18 19 20 20 21 22 22 22 22 22 22 22 23 23 24 24 25 25 26 27 28 29 29 29 30 30 30
15 15 15 16 16 16 17 18 18 18 19 20 20 21 22 22 22 23 24 24 24 24 25 25 26 26 26 27 28 29 29 30 30 31 31 31 31 31
17 17 18 18 19 19 20 21 21 21 21 21 22 22 23 24 24 25 25 26 26 27 27 28 28 29 29 29 30 31 31 31 31 32 33 33 33 33
19 20 20 21 21 22 22 23 23 23 23 23 23 24 24 25 25 26 27 28 28 28 29 29 30 30 30 30 31 31 32 32 33 33 34 35 35 35
21 22 22 22 23 23 24 24 24 24 24 24 24 24 25 25 26 27 29 29 30 31 31 31 32 33 33 33 33 33 33 33 33 33 34 34 35 36
21 21 22 23 24 24 24 23 23 24 24 25 25 25 26 27 27 29 30 30 31 32 32 33 33 33 34 34 34 34 34 34 34 34 34 35 35 36
22 22 23 24 24 24 24 24 24 24 25 25 25 26 27 28 29 29 30 31 31 31 31 32 33 33 33 33 34 34 34 35 35 35 35 35 36 36
22 23 24 24 24 24 25 24 25 26 26 27 27 28 29 29 30 30 30 31 31 31 32 32 33 33 32 32 32 33 34 35 36 36 37 37 37 37
24 24 24 25 25 25 24 25 26 26 27 27 28 28 29 30 30 31 31 32 32 32 33 33 33 33 33 33 33 34 35 35 36 37 37 38 38 38
25 24 24 25 25 25 25 26 26 27 28 28 29 29 30 30 31 31 31 32 32 33 33 33 33 33 33 33 34 34 34 35 35 36 38 39 39 38
25 24 24 25 25 25 26 26 27 28 28 29 29 30 30 31 32 32 32 32 32 33 33 33 33 34 34 33 34 34 34 35 35 36 37 38 39 38
24 24 24 25 26 27 27 27 28 28 29 29 30 30 31 32 32 32 33 33 33 33 33 33 33 34 34 34 34 34 35 35 36 37 37 37 38 38
25 25 25 26 26 27 27 28 28 28 29 30 30 31 31 32 32 33 33 34 34 34 34 34 33 34 34 35 35 35 35 36 37 37 37 37 37 37
25 25 25 26 27 28 28 28 29 29 30 31 31 31 32 32 33 33 33 33 34 34 34 34 34 34 34 34 35 35 35 35 36 36 35 36 36 36
25 25 26 27 28 29 29 29 30 30 31 31 31 31 32 32 33 33 34 34 34 33 33 34 34 34 34 34 34 34 35 35 35 35 35 34 34 34
25 25 26 27 28 29 29 30 30 31 31 31 31 31 32 32 33 33 33 33 34 34 33 33 33 34 34 33 33 34 34 34 34 34 34 34 33 33
26 26 27 28 29 30 30 30 30 30 30 31 31 32 32 33 33 33 33 33 33 33 34 33 33 33 34 33 33 33 34 33 33 33 33 33 33 33
27 28 29 30 30 30 30 30 30 30 30 31 32 32 33 33 33 32 33 33 33 33 33 33 33 33 32 32 32 32 32 32 32 32 32 32 32 33
27 28 29 30 30 30 30 30 30 30 31 31 32 32 32 32 32 32 32 32 32 32 32 32 32 32 31 31 31 31 31 31 31 31 31 31 31 31
28 29 30 30 31 31 30 30 30 30 31 31 31 31 31 32 32 32 32 32 32 32 32 32 31 31 31 31 31 31 31 31 31 31 31 31 30 30
29 29 30 30 30 29 29 29 30 30 30 30 31 31 32 32 32 32 32 32 32 32 32 31 31 31 31 30 30 30 30 30 30 30 30 30 30 30
Wind_Direction
296 296 298 300 300 297 296 294 293 293 292 293 294 292 290 289 290 289 288 286 285 284 283 282 281 281 278 276 274 274 274 275 275 274 274 273 273 274
295 295 298 299 299 302 302 298 295 293 292 291 292 293 290 289 289 288 290 290 289 288 285 283 283 284 282 278 277 275 276 276 276 276 275 275 275 274
298 299 300 300 300 301 302 301 297 293 291 290 290 290 290 289 288 289 289 289 289 288 287 285 285 285 284 281 280 279 278 277 276 275 276 276 275 275
299 298 299 299 299 300 300 300 299 298 295 293 292 291 290 290 290 289 288 288 290 288 287 286 285 284 284 282 281 280 279 277 276 276 275 275 275 275
295 294 298 297 298 299 300 299 298 298 297 296 295 293 292 291 291 291 291 290 290 288 287 286 284 284 284 283 282 280 279 278 277 277 276 275 275 275
294 293 294 295 296 297 298 299 297 295 296 297 297 295 294 294 293 293 293 292 291 290 288 287 285 284 284 283 283 282 281 280 279 279 278 276 276 275
292 293 293 295 295 296 296 298 297 295 295 297 297 296 295 295 295 295 293 292 292 292 290 289 288 286 285 284 284 283 283 282 281 280 280 278 277 276
293 295 296 296 296 296 296 298 298 297 295 297 297 297 297 297 297 297 297 295 295 294 293 292 291 289 287 284 283 283 282 282 282 281 281 280 279 278
294 295 298 298 296 295 296 297 298 298 298 298 298 298 298 298 298 298 298 297 296 296 296 296 294 292 289 287 285 284 284 283 283 283 283 282 281 280
297 299 298 300 298 296 296 298 298 297 297 297 298 298 299 299 298 298 298 297 297 298 298 297 296 294 291 289 288 288 287 286 285 284 283 283 283 282
298 300 299 299 299 299 297 296 297 297 297 297 298 298 298 299 298 298 298 297 296 297 297 296 295 295 293 291 290 289 288 288 287 285 284 284 283 282
298 298 297 297 299 301 299 299 298 299 299 299 299 299 299 300 300 299 299 298 296 296 295 295 295 295 294 293 292 290 288 288 288 287 286 285 283 282
300 298 297 298 300 303 302 301 300 300 300 300 300 301 300 301 300 300 300 299 298 297 296 295 295 295 293 292 292 292 290 289 288 287 287 287 286 284
301 300 300 300 302 303 302 302 302 302 302 301 302 302 303 303 302 302 301 301 300 299 298 297 296 296 295 294 293 293 290 289 289 289 289 288 287 286
299 300 300 300 302 302 302 302 303 303 303 303 303 303 304 304 304 304 303 301 300 300 300 299 298 297 295 295 294 294 293 291 291 291 290 288 287 287
301 300 300 301 302 302 301 301 302 303 304 305 305 305 305 306 305 305 304 303 302 302 302 300 298 297 297 296 296 295 294 294 294 294 292 290 289 288
300 301 302 302 303 304 303 303 303 303 304 305 305 306 306 306 307 307 306 305 304 303 302 302 300 298 298 297 297 297 297 296 295 294 293 292 291 290
299 301 301 302 303 304 305 304 303 304 304 305 305 306 307 307 308 309 308 307 306 305 305 303 301 301 301 300 300 300 299 298 296 295 294 294 293 292
300 301 302 303 304 305 306 305 305 304 306 306 306 306 307 309 309 310 310 309 309 307 307 305 303 302 302 302 301 301 301 300 298 297 296 295 295 294
302 302 303 304 304 304 305 305 305 305 306 307 307 308 308 309 309 309 310 310 310 309 308 307 305 304 303 304 303 302 302 301 300 299 298 297 297 297
303 303 303 304 305 306 305 305 305 306 306 307 308 309 309 310 310 310 310 311 311 310 309 309 308 307 307 307 307 306 305 304 303 302 301 301 301 300
302 303 303 303 305 306 307 307 307 306 307 307 309 310 310 311 311 312 312 312 312 311 311 311 311 310 310 310 309 308 307 306 305 305 303 303 302 302
302 303 304 305 306 307 307 307 307 307 307 307 308 309 310 311 312 312 312 312 311 311 312 312 311 311 310 310 310 310 309 308 307 306 306 305 304 304
Height
5876 5875 5874 5873 5872 5871 5870 5869 5868 5867 5866 5864 5862 5861 5859 5858 5857 5855 5854 5853 5852 5850 5849 5848 5846 5845 5844 5844 5843 5842 5842 5841 5840 5839 5838 5838 5837 5836
5873 5872 5871 5870 5869 5868 5867 5865 5864 5863 5862 5860 5858 5857 5855 5854 5852 5851 5850 5848 5846 5845 5843 5842 5841 5839 5838 5837 5836 5836 5835 5834 5833 5832 5831 5830 5830 5829
5870 5869 5868 5867 5866 5865 5863 5862 5860 5859 5857 5856 5854 5852 5851 5849 5847 5846 5844 5843 5841 5839 5837 5835 5834 5833 5832 5831 5830 5829 5827 5826 5825 5824 5823 5822 5821 5820
5867 5866 5865 5864 5862 5861 5859 5858 5856 5854 5853 5851 5849 5847 5845 5844 5842 5840 5838 5836 5835 5833 5831 5829 5828 5826 5825 5823 5822 5821 5819 5818 5817 5816 5815 5814 5812 5811
5864 5862 5861 5860 5858 5857 5855 5853 5851 5849 5847 5846 5844 5842 5840 5838 5836 5834 5832 5830 5828 5826 5824 5822 5820 5819 5817 5815 5813 5812 5810 5809 5808 5806 5805 5804 5803 5802
5859 5858 5857 5855 5853 5852 5850 5848 5846 5843 5841 5840 5838 5836 5834 5832 5830 5827 5825 5823 5821 5819 5816 5814 5812 5810 5808 5806 5805 5803 5801 5799 5798 5796 5795 5794 5792 5791
5854 5853 5851 5850 5848 5846 5844 5842 5840 5837 5835 5834 5831 5829 5827 5825 5823 5820 5818 5815 5813 5810 5808 5805 5803 5801 5799 5797 5795 5793 5791 5790 5788 5786 5785 5783 5782 5780
5849 5848 5846 5844 5842 5840 5838 5836 5834 5832 5830 5827 5825 5823 5820 5818 5816 5813 5810 5808 5805 5803 5799 5797 5794 5792 5789 5787 5785 5783 5781 5779 5778 5776 5774 5773 5771 5770
5844 5842 5840 5838 5836 5834 5832 5830 5828 5826 5824 5821 5819 5816 5813 5811 5808 5806 5803 5800 5797 5794 5791 5788 5785 5782 5780 5777 5775 5773 5771 5769 5767 5766 5764 5762 5760 5759
5839 5837 5834 5832 5829 5827 5825 5823 5821 5819 5817 5814 5812 5809 5806 5803 5801 5798 5795 5792 5789 5785 5782 5780 5776 5773 5770 5768 5765 5763 5761 5759 5757 5755 5753 5751 5749 5747
5833 5830 5828 5826 5823 5821 5819 5817 5814 5812 5810 5807 5804 5801 5798 5795 5792 5790 5786 5783 5780 5777 5774 5771 5768 5764 5761 5758 5755 5753 5750 5748 5746 5743 5742 5740 5738 5736
5826 5824 5822 5819 5817 5815 5812 5810 5808 5805 5802 5800 5797 5794 5791 5787 5784 5781 5778 5774 5771 5768 5765 5762 5758 5755 5752 5749 5745 5743 5740 5737 5735 5733 5730 5728 5726 5724
5819 5817 5815 5813 5811 5808 5806 5803 5801 5798 5795 5792 5789 5786 5783 5779 5776 5772 5769 5766 5762 5759 5756 5752 5749 5746 5742 5739 5736 5733 5730 5727 5724 5722 5719 5716 5714 5712
5813 5811 5809 5807 5804 5801 5799 5796 5793 5790 5787 5784 5781 5778 5774 5771 5767 5763 5760 5756 5753 5749 5746 5742 5739 5736 5732 5729 5726 5723 5719 5716 5713 5710 5707 5705 5702 5700
5807 5804 5802 5800 5797 5795 5792 5789 5786 5783 5780 5777 5773 5770 5766 5762 5758 5755 5751 5747 5743 5740 5736 5732 5729 5726 5722 5719 5715 5712 5709 5705 5702 5699 5696 5693 5691 5688
5800 5798 5796 5793 5791 5788 5785 5782 5778 5775 5772 5768 5765 5761 5757 5754 5750 5746 5742 5738 5734 5731 5726 5722 5719 5715 5712 5708 5705 5702 5698 5695 5692 5688 5685 5682 5679 5677
5794 5791 5789 5786 5784 5780 5777 5774 5770 5767 5763 5760 5756 5753 5749 5745 5741 5737 5733 5729 5725 5721 5717 5713 5709 5705 5701 5698 5695 5691 5688 5684 5681 5678 5675 5671 5668 5666
5787 5785 5782 5779 5776 5773 5770 5766 5762 5759 5755 5752 5748 5744 5741 5737 5733 5729 5724 5720 5716 5712 5708 5704 5700 5696 5692 5688 5685 5681 5677 5674 5671 5667 5664 5661 5658 5655
5780 5778 5775 5772 5769 5765 5762 5758 5754 5751 5747 5744 5740 5736 5732 5728 5724 5720 5715 5711 5707 5703 5698 5694 5690 5687 5683 5679 5675 5671 5668 5664 5661 5657 5654 5651 5648 5645
5773 5770 5767 5764 5760 5757 5753 5750 5746 5743 5739 5735 5732 5728 5724 5720 5715 5711 5707 5703 5698 5694 5690 5685 5681 5677 5674 5670 5666 5662 5658 5655 5651 5648 5645 5641 5638 5635
5765 5762 5759 5756 5752 5749 5745 5741 5738 5734 5731 5727 5723 5719 5715 5711 5707 5703 5699 5694 5690 5686 5681 5677 5673 5669 5665 5661 5657 5653 5650 5646 5642 5639 5636 5632 5629 5626
5757 5754 5751 5748 5744 5740 5737 5733 5729 5726 5722 5719 5715 5711 5707 5703 5699 5695 5690 5686 5682 5678 5673 5669 5665 5661 5657 5653 5649 5645 5642 5638 5634 5630 5627 5623 5620 5617
5750 5747 5743 5739 5736 5732 5729 5725 5721 5718 5714 5710 5707 5703 5699 5695 5691 5687 5682 5678 5674 5670 5666 5662 5657 5653 5649 5645 5641 5638 5634 5630 5626 5623 5619 5615 5611 5608